OH7GGX-14 Weather Reports


time (UTC)temp
C
wind
direction
speed
KPH
gust
KPH
rain 1hr
cm
rain 24hr
cm
rain mn
cm
humidity
%
barometer
mb
20260507080128 9 281 4.8 6.4 0.00 0.00 0.00 46 1018.1
20260507075128 9 324 1.6 6.4 0.00 0.00 0.00 49 1018.3
20260507074128 9 36 3.2 4.8 0.00 0.00 0.00 48 1018.1
20260507073128 9 43 3.2 4.8 0.00 0.00 0.00 51 1018.1
20260507072128 9 43 6.4 8.0 0.00 0.00 0.00 51 1018.2
20260507071128 8 43 6.4 6.4 0.00 0.00 0.00 54 1018.3
20260507070128 8 40 4.8 6.4 0.00 0.00 0.00 55 1018.2
20260507065128 8 39 3.2 4.8 0.00 0.00 0.00 56 1018.3
20260507064128 8 244 3.2 4.8 0.00 0.00 0.00 57 1018.3
20260507063128 7 33 1.6 3.2 0.00 0.00 0.00 61 1018.3
20260507062128 7 43 1.6 4.8 0.00 0.00 0.00 62 1018.4
20260507061128 7 43 3.2 3.2 0.00 0.00 0.00 67 1018.3
20260507060128 7 19 3.2 4.8 0.00 0.00 0.00 73 1018.3
20260507055128 6 30 3.2 4.8 0.00 0.00 0.00 78 1018.4
20260507054128 6 260 3.2 4.8 0.00 0.00 0.00 85 1018.3
20260507053128 5 257 3.2 3.2 0.00 0.00 0.00 94 1018.4
20260507052128 4 278 3.2 4.8 0.00 0.00 0.00 99 1018.4
20260507051128 3 257 3.2 4.8 0.00 0.00 0.00 99 1018.3
20260507050128 2 236 1.6 3.2 0.00 0.00 0.00 99 1018.3
20260507045129 2 345 1.6 3.2 0.00 0.00 0.00 99 1018.4
20260507044129 1 244 0.0 1.6 0.00 0.00 0.00 99 1018.3
20260507043129 0 43 0.0 3.2 0.00 0.00 0.00 99 1018.4
20260507042129 0 243 1.6 1.6 0.00 0.00 0.00 99 1018.4
20260507041129 0 43 0.0 1.6 0.00 0.00 0.00 99 1018.3
20260507040129 -1 43 0.0 1.6 0.00 0.00 0.00 99 1018.4
20260507035129 -1 251 1.6 1.6 0.00 0.00 0.00 99 1018.4
20260507034129 -1 274 1.6 1.6 0.00 0.00 0.00 99 1018.3
20260507033129 -2 303 0.0 1.6 0.00 0.00 0.00 99 1018.3
20260507032130 -2 43 0.0 0.0 0.00 0.00 0.00 99 1018.3
20260507031129 -2 347 0.0 0.0 0.00 0.00 0.00 99 1018.2
20260507030129 -2 293 0.0 0.0 0.00 0.00 0.00 99 1018.0
20260507025129 -3 334 0.0 0.0 0.00 0.00 0.00 99 1018.1
20260507024129 -3 334 0.0 0.0 0.00 0.00 0.00 99 1018.0
20260507023129 -3 223 0.0 0.0 0.00 0.00 0.00 99 1017.9
20260507022129 -3 223 0.0 0.0 0.00 0.00 0.00 99 1017.9
20260507021129 -3 223 0.0 0.0 0.00 0.00 0.00 99 1017.9
20260507020129 -3 223 0.0 0.0 0.00 0.00 0.00 99 1017.8
20260507015129 -3 223 0.0 0.0 0.00 0.00 0.00 99 1017.8
20260507014129 -3 223 0.0 0.0 0.00 0.00 0.00 99 1017.7
20260507013129 -3 223 0.0 0.0 0.00 0.00 0.00 99 1017.6
20260507012129 -3 223 0.0 0.0 0.00 0.00 0.00 99 1017.5
20260507011129 -3 223 0.0 0.0 0.00 0.00 0.00 99 1017.6
20260507010129 -3 223 0.0 0.0 0.00 0.00 0.00 99 1017.5
20260507005129 -2 223 0.0 0.0 0.00 0.00 0.00 99 1017.4
20260507004129 -2 223 0.0 0.0 0.00 0.00 0.00 99 1017.3
20260507003129 -2 223 0.0 0.0 0.00 0.00 0.00 99 1017.3
20260507002131 -2 334 0.0 0.0 0.00 0.00 0.00 99 1017.2
20260507001129 -2 334 0.0 0.0 0.00 0.00 0.00 99 1017.2
20260507000129 -2 334 0.0 0.0 0.00 0.00 0.00 99 1017.1
20260506235129 -2 334 0.0 0.0 0.00 0.00 0.00 99 1017.0
20260506234129 -2 334 0.0 0.0 0.00 0.00 0.00 98 1016.9
20260506233129 -2 334 0.0 0.0 0.00 0.00 0.00 97 1016.7
20260506232129 -2 334 0.0 0.0 0.00 0.00 0.00 96 1016.6
20260506231129 -2 334 0.0 0.0 0.00 0.00 0.00 95 1016.7
20260506230129 -2 223 0.0 0.0 0.00 0.00 0.00 95 1016.5
20260506225129 -2 223 0.0 0.0 0.00 0.00 0.00 94 1016.5
20260506224129 -1 223 0.0 0.0 0.00 0.00 0.00 93 1016.4
20260506223129 -1 334 0.0 0.0 0.00 0.00 0.00 93 1016.3
20260506222129 -1 334 0.0 0.0 0.00 0.00 0.00 92 1016.3
20260506221129 -1 348 0.0 0.0 0.00 0.00 0.00 91 1016.1
20260506220129 -1 334 0.0 0.0 0.00 0.00 0.00 91 1016.1
20260506215129 -1 336 0.0 0.0 0.00 0.00 0.00 89 1015.9
20260506214129 -1 334 0.0 0.0 0.00 0.00 0.00 88 1015.8
20260506213129 -1 334 0.0 0.0 0.00 0.00 0.00 88 1015.7
20260506212129 -1 338 0.0 0.0 0.00 0.00 0.00 86 1015.7
20260506211129 -1 334 0.0 0.0 0.00 0.00 0.00 86 1015.7
20260506210129 -1 334 0.0 0.0 0.00 0.00 0.00 84 1015.6
20260506205129 -1 334 0.0 0.0 0.00 0.00 0.00 82 1015.6
20260506204129 0 334 0.0 0.0 0.00 0.00 0.00 81 1015.5
20260506203129 0 334 0.0 0.0 0.00 0.00 0.00 80 1015.5
20260506202129 0 334 0.0 0.0 0.00 0.00 0.00 78 1015.5
20260506201129 0 223 0.0 0.0 0.00 0.00 0.00 76 1015.5
20260506200129 0 336 0.0 0.0 0.00 0.00 0.00 75 1015.5
20260506195129 0 334 0.0 0.0 0.00 0.00 0.00 74 1015.4
20260506194130 0 334 0.0 0.0 0.00 0.00 0.00 73 1015.3
20260506193130 0 334 0.0 1.6 0.00 0.00 0.00 72 1015.3
20260506192130 1 292 0.0 0.0 0.00 0.00 0.00 71 1015.2
20260506191130 1 21 0.0 0.0 0.00 0.00 0.00 69 1015.0
20260506190130 2 21 0.0 1.6 0.00 0.00 0.00 67 1015.0
20260506185130 2 39 0.0 1.6 0.00 0.00 0.00 65 1014.9
20260506184130 3 178 0.0 0.0 0.00 0.00 0.00 63 1014.8
20260506183130 3 178 1.6 1.6 0.00 0.00 0.00 60 1014.7
20260506182130 4 178 0.0 1.6 0.00 0.00 0.00 58 1014.6
20260506181130 5 323 0.0 1.6 0.00 0.00 0.00 55 1014.4
20260506180130 6 178 0.0 0.0 0.00 0.00 0.00 52 1014.3
20260506175130 6 178 0.0 1.6 0.00 0.00 0.00 49 1014.1
20260506174130 7 223 0.0 1.6 0.00 0.00 0.00 46 1014.1
20260506173130 8 178 0.0 1.6 0.00 0.00 0.00 44 1014.0
20260506172130 8 201 1.6 1.6 0.00 0.00 0.00 43 1013.8
20260506171130 8 278 3.2 4.8 0.00 0.00 0.00 42 1013.8
20260506170130 8 178 1.6 11.3 0.00 0.00 0.00 42 1013.7
20260506165130 8 240 1.6 12.9 0.00 0.00 0.00 41 1013.6
20260506164130 8 191 4.8 8.0 0.00 0.00 0.00 40 1013.5
20260506163130 9 196 4.8 9.7 0.00 0.00 0.00 40 1013.4
20260506162130 9 202 4.8 19.3 0.00 0.00 0.00 40 1013.3
20260506161130 9 272 4.8 12.9 0.00 0.00 0.00 39 1013.2
20260506160130 9 240 3.2 9.7 0.00 0.00 0.00 40 1013.2
20260506155130 8 258 0.0 4.8 0.00 0.00 0.00 41 1013.1
20260506154130 8 213 1.6 8.0 0.00 0.00 0.00 41 1013.0
20260506153130 8 215 1.6 6.4 0.00 0.00 0.00 40 1013.0
20260506152130 9 213 3.2 9.7 0.00 0.00 0.00 40 1012.9
20260506151130 9 216 6.4 9.7 0.00 0.00 0.00 38 1012.9
20260506150130 9 233 3.2 19.3 0.00 0.00 0.00 36 1012.8
20260506145130 10 354 4.8 14.5 0.00 0.00 0.00 37 1012.7
20260506144130 10 251 6.4 19.3 0.00 0.00 0.00 36 1012.7
20260506143130 10 265 9.7 12.9 0.00 0.00 0.00 37 1012.6
20260506142130 10 241 4.8 16.1 0.00 0.00 0.00 39 1012.5
20260506141130 10 21 6.4 6.4 0.00 0.00 0.00 39 1012.3
20260506140130 10 237 4.8 16.1 0.00 0.00 0.00 37 1012.2
20260506135130 10 345 0.0 9.7 0.00 0.00 0.00 40 1012.2
20260506134130 10 324 4.8 11.3 0.00 0.00 0.00 40 1012.2
20260506133130 10 15 1.6 17.7 0.00 0.00 0.00 40 1012.1
20260506132130 10 250 9.7 17.7 0.00 0.00 0.00 40 1011.9
20260506131130 10 226 8.0 16.1 0.00 0.00 0.00 41 1011.9
20260506130130 10 247 9.7 19.3 0.00 0.00 0.00 41 1012.0
20260506125130 10 270 8.0 16.1 0.00 0.00 0.00 40 1011.6
20260506124130 10 233 9.7 17.7 0.00 0.00 0.00 39 1011.6
20260506123130 10 243 12.9 19.3 0.00 0.00 0.00 38 1011.5
20260506122130 10 16 3.2 12.9 0.00 0.00 0.00 40 1011.4
20260506121130 10 229 6.4 19.3 0.00 0.00 0.00 38 1011.4
20260506120130 10 230 6.4 16.1 0.00 0.00 0.00 40 1011.4
20260506115130 10 258 9.7 19.3 0.00 0.00 0.00 39 1011.3
20260506114130 10 260 6.4 8.0 0.00 0.00 0.00 41 1011.1
20260506113130 10 240 8.0 22.5 0.00 0.00 0.00 42 1011.1
20260506112130 9 206 9.7 19.3 0.00 0.00 0.00 43 1010.9
20260506111130 9 232 4.8 14.5 0.00 0.00 0.00 43 1011.0
20260506110130 10 232 11.3 12.9 0.00 0.00 0.00 41 1011.0
20260506105130 10 316 3.2 14.5 0.00 0.00 0.00 40 1010.8
20260506104131 10 15 0.0 20.9 0.00 0.00 0.00 42 1010.6
20260506103130 10 209 8.0 14.5 0.00 0.00 0.00 44 1010.5
20260506102130 9 206 4.8 17.7 0.00 0.00 0.00 45 1010.5
20260506101130 9 232 3.2 14.5 0.00 0.00 0.00 45 1010.5
20260506100130 10 258 11.3 16.1 0.00 0.00 0.00 41 1010.4
20260506095131 10 305 6.4 27.4 0.00 0.00 0.00 44 1010.2
20260506094130 10 236 12.9 22.5 0.00 0.00 0.00 45 1010.1
20260506093131 9 219 9.7 14.5 0.00 0.20 0.00 47 1010.0
20260506092131 8 226 12.9 14.5 0.00 0.20 0.00 47 1009.9
20260506091131 8 246 8.0 22.5 0.00 0.20 0.00 48 1009.9
20260506090131 8 240 12.9 17.7 0.00 0.20 0.00 53 1009.8
20260506085131 8 246 6.4 8.0 0.00 0.20 0.00 52 1009.9
20260506084131 8 274 12.9 12.9 0.00 0.20 0.00 51 1009.7
20260506083131 8 227 6.4 19.3 0.00 0.20 0.00 51 1009.6
20260506082131 8 217 4.8 14.5 0.00 0.20 0.00 51 1009.5
20260506081131 8 233 9.7 12.9 0.00 0.20 0.00 50 1009.5